Location: PSU-Greenbush Astrophysical Observatory
(37.5140°N, 94.9880°W)
Time: 16:36:02
(UTC-06:00)

Transit 2A - Pass Details

Date: 28 January 2020
Orbit: 600 x 959 km, 66.7° (Epoch: 19 February)

Event Time Altitude Azimuth Distance (km) Brightness Sun altitude
Rises 20:13:36 0° 245° (WSW) 2,890 9.9 -30.7°
Reaches altitude 10° 20:16:28 10° 264° (W) 1,958 9.0 -31.2°
Maximum altitude 20:19:33 19° 309° (NW) 1,464 7.9 -31.8°
Enters shadow 20:20:07 18° 319° (NW) 1,482 7.9 -31.9°
Drops below altitude 10° 20:22:37 10° 354° (N) 1,946 - -32.4°
Sets 20:25:28 0° 13° (NNE) 2,866 - -33.0°
